Tracking 29892 objects as of 21-Nov-2024
HD Live streaming from Space Station
objects crossing your sky now

BREEZE-M DEB (TANK)

Track BREEZE-M DEB (TANK) now!
10-day predictions


NORAD ID: 35495
Int'l Code: 2009-034C
Perigee: 318.7 km
Apogee: 13,344.0 km
Inclination: 49.6 °
Period: 251.6 minutes
Semi major axis: 13202 km
RCS: 6.3096 m2 (large)
Launch date: June 30, 2009
Source: Commonwealth of Independent States (former USSR) (CIS)
Launch site: TYURATAM MISSILE AND SPACE COMPLEX (TTMTR)

Note: This is SATELLITE DEBRIS
Your satellite tracking list
Your tracking list is empty




NASA's NSSDC Master Catalog

Two Line Element Set (TLE):
1 35495U 09034C   24325.61214367  .00009273  00000-0  16866-2 0  9998
2 35495  49.5869 172.7486 4932953  35.2219 349.2180  5.72303140310142
Source of the keplerian elements: AFSPC